Regional Weather Roundup
Issued by NWS Sioux Falls, SD

Home | Current Version | Previous Version | Graphics & Text | Print | Product List | Glossary Off
Versions: 1 2 3 4 5 6 7 8 9 10 11 12 13 14 15 16 17 18 19 20 21 22 23 24 25 26 27 28 29 30 31 32 33 34 35 36 37 38 39 40 41 42 43 44 45 46 47 48 49 50

842
ASUS43 KFSD 280410
RWRFSD

WEATHER ROUNDUP FOR SE SOUTH DAKOTA/SW MINNESOTA/NW IOWA
NATIONAL WEATHER SERVICE SIOUX FALLS SD
1100 PM CDT WED JUL 27 2016

NOTE: "FAIR" INDICATES FEW OR NO CLOUDS BELOW 12,000 FEET WITH NO
SIGNIFICANT WEATHER AND OR OBSTRUCTIONS TO VISIBILITY.


SDZ038>040-050-052>070-280500-
SOUTHEAST SOUTH DAKOTA

CITY           SKY/WX    TMP DP  RH WIND       PRES   REMARKS
BROOKINGS      MOCLDY    66  60  81 NE3       30.06S
CHAMBERLAIN    CLOUDY    73  65  78 N5        30.08R
HURON          CLOUDY    70  61  73 NE6       30.05R
MADISON        FAIR      64  64 100 NE8       30.06S
MITCHELL       MOCLDY    72  63  73 NE7       30.04R
SIOUX FALLS    CLOUDY    70  63  78 N7        30.04R
WINNER         FAIR      66  62  87 NW8       30.11R
YANKTON        CLOUDY    73  63  68 NE6       30.02R
$$

MNZ071-072-080-081-089-090-097-098-280500-
SOUTHWEST MINNESOTA

CITY           SKY/WX    TMP DP  RH WIND       PRES   REMARKS
FAIRMONT       CLEAR     68  64  88 NW6       30.00R
JACKSON        PTCLDY    68  63  83 NW5       30.03S
LUVERNE        PTCLDY    70  59  68 N6        30.04S
MARSHALL       CLEAR     67  61  81 N5        30.04S
MONTEVIDEO     CLEAR     66  61  82 N5        30.05S
REDWOOD FALLS  CLEAR     69  64  84 NW5       30.01R
TRACY          CLEAR     67  65  90 NW6       30.04S
WINDOM         CLEAR     68  64  88 NW5       30.03R
WORTHINGTON    CLOUDY    66  63  90 N7        30.04S
$$

IAZ001>003-012>014-020>022-031-032-NEZ013-014-SDZ071-280500-
NORTHWEST IOWA

CITY           SKY/WX    TMP DP  RH WIND       PRES   REMARKS
CHEROKEE       PTCLDY    71  67  85 N6        30.01R
DENISON        CLEAR     72  70  94 CALM      29.98R
ESTHERVILLE    CLEAR     66  65  96 N6        30.01R
LE MARS        CLOUDY    72  66  83 N8        30.02S
SHELDON        PTCLDY    68  66  94 N6        30.02R
SIOUX CITY     CLOUDY    78  64  61 N8        30.00R
SPENCER        PTCLDY    70  64  81 N9        30.01S
STORM LAKE     CLEAR     72  66  83 N7        30.01S
$$

ABBREVIATIONS USED IN REMARKS
   TC - TEMPERATURE IN CELSIUS
  WCI - WIND CHILL INDEX
   HX - HEAT INDEX
  VSB - VISIBILITY





USA.gov is the U.S. government's official web portal to all federal, state and local government web resources and services.